• In Switzerland
  • List of Countries
  • For 7 days
  • Water Temperature
  • Satellite Maps
  • Weather Map
  • Weather Widgets
  • user-avatar
    Login

    Hourly Weather Kirkenes

    Today, 22 November, Wednesday

    Time Temperature Precipitation Wind Pressure Humidity
    00:00 -13°C° 0 mm 1 mps 755 mmHg 88%
    01:00 -13°C° 0 mm 1 mps 755 mmHg 88%
    02:00 -14°C° 0 mm 1 mps 755 mmHg 84%
    03:00 -14°C° 0 mm 1 mps 755 mmHg 84%
    04:00 -13°C° 0 mm 1 mps 755 mmHg 83%
    05:00 -13°C° 0 mm 1 mps 755 mmHg 83%
    06:00 -13°C° 0 mm 1 mps 755 mmHg 84%
    07:00 -13°C° 0 mm 1 mps 755 mmHg 84%
    08:00 -13°C° 0 mm 1 mps 755 mmHg 85%
    09:00 -13°C° 0 mm 1 mps 755 mmHg 86%
    10:00 -13°C° 0 mm 1 mps 755 mmHg 87%
    11:00 -13°C° 0 mm 1 mps 755 mmHg 88%
    12:00 -13°C° 0 mm 1 mps 755 mmHg 89%
    13:00 -13°C° 0 mm 1 mps 755 mmHg 90%
    14:00 -13°C° 0 mm 1 mps 756 mmHg 91%
    15:00 -12°C° 0 mm 1 mps 756 mmHg 92%
    16:00 -12°C° 0 mm 1 mps 756 mmHg 93%
    17:00 -12°C° 0 mm 0 mps 756 mmHg 93%
    18:00 -12°C° 0 mm 0 mps 756 mmHg 94%
    19:00 -12°C° 0 mm 0 mps 756 mmHg 95%
    20:00 -12°C° 0 mm 0 mps 756 mmHg 95%
    21:00 -12°C° 0 mm 0 mps 756 mmHg 95%
    22:00 -12°C° 0 mm 0 mps 756 mmHg 95%
    23:00 -11°C° 0 mm 1 mps 756 mmHg 96%

    Tomorrow, 23 November, Thursday

    Time Temperature Precipitation Wind Pressure Humidity
    00:00 -11°C° 0 mm 1 mps 756 mmHg 95%
    01:00 -11°C° 0 mm 1 mps 756 mmHg 95%
    02:00 -11°C° 0 mm 1 mps 756 mmHg 95%
    03:00 -11°C° 0 mm 1 mps 756 mmHg 96%
    04:00 -11°C° 0 mm 1 mps 756 mmHg 96%
    05:00 -12°C° 0 mm 1 mps 755 mmHg 97%
    06:00 -12°C° 0 mm 1 mps 755 mmHg 97%
    07:00 -12°C° 0 mm 1 mps 755 mmHg 97%
    08:00 -12°C° 0 mm 1 mps 755 mmHg 97%
    09:00 -12°C° 0 mm 1 mps 755 mmHg 97%
    10:00 -14°C° 0 mm 2 mps 755 mmHg 96%
    11:00 -14°C° 0 mm 2 mps 755 mmHg 96%
    12:00 -14°C° 0 mm 2 mps 755 mmHg 96%
    13:00 -15°C° 0 mm 2 mps 755 mmHg 96%
    14:00 -15°C° 0 mm 2 mps 755 mmHg 96%
    15:00 -16°C° 0 mm 2 mps 754 mmHg 95%
    16:00 -16°C° 0 mm 2 mps 754 mmHg 95%
    17:00 -16°C° 0 mm 2 mps 754 mmHg 94%
    18:00 -16°C° 0 mm 2 mps 753 mmHg 92%
    19:00 -15°C° 0 mm 2 mps 753 mmHg 90%
    20:00 -16°C° 0 mm 3 mps 753 mmHg 88%
    21:00 -16°C° 0 mm 3 mps 752 mmHg 85%
    22:00 -16°C° 0 mm 4 mps 752 mmHg 83%
    23:00 -15°C° 0 mm 4 mps 751 mmHg 80%

    Day after tomorrow, 24 November, Friday

    Time Temperature Precipitation Wind Pressure Humidity
    00:00 -15°C° 0 mm 5 mps 751 mmHg 81%
    01:00 -15°C° 0 mm 6 mps 750 mmHg 81%
    02:00 -15°C° 0 mm 6 mps 750 mmHg 82%
    03:00 -14°C° 0.1 mm 7 mps 749 mmHg 83%
    04:00 -14°C° 0.1 mm 7 mps 749 mmHg 84%
    05:00 -13°C° 0.1 mm 8 mps 748 mmHg 85%
    06:00 -14°C° 0.2 mm 9 mps 748 mmHg 86%
    07:00 -14°C° 0.2 mm 9 mps 747 mmHg 86%
    08:00 -13°C° 0.2 mm 10 mps 747 mmHg 86%
    09:00 -13°C° 0.3 mm 10 mps 746 mmHg 87%
    10:00 -13°C° 0.3 mm 10 mps 746 mmHg 88%
    11:00 -13°C° 0.3 mm 11 mps 745 mmHg 89%
    12:00 -13°C° 0.5 mm 11 mps 745 mmHg 89%
    13:00 -13°C° 0.5 mm 11 mps 744 mmHg 90%
    14:00 -12°C° 0.5 mm 12 mps 744 mmHg 91%
    15:00 -12°C° 0.5 mm 12 mps 743 mmHg 91%
    16:00 -12°C° 0.5 mm 12 mps 743 mmHg 90%
    17:00 -12°C° 0.5 mm 12 mps 742 mmHg 90%
    18:00 -12°C° 0.5 mm 11 mps 741 mmHg 91%
    19:00 -12°C° 0.5 mm 11 mps 741 mmHg 91%
    20:00 -10°C° 0.5 mm 10 mps 740 mmHg 92%
    21:00 -10°C° 0.4 mm 9 mps 740 mmHg 92%
    22:00 -10°C° 0.4 mm 9 mps 740 mmHg 92%
    23:00 -8°C° 0.4 mm 8 mps 739 mmHg 93%

    25 November, Saturday

    Time Temperature Precipitation Wind Pressure Humidity
    00:00 -8°C° 0.3 mm 7 mps 739 mmHg 92%
    01:00 -7°C° 0.3 mm 7 mps 739 mmHg 92%
    02:00 -6°C° 0.3 mm 6 mps 739 mmHg 92%
    03:00 -6°C° 0.1 mm 6 mps 739 mmHg 92%
    04:00 -6°C° 0.1 mm 5 mps 739 mmHg 93%
    05:00 -5°C° 0.1 mm 4 mps 739 mmHg 93%
    06:00 -5°C° 0 mm 4 mps 738 mmHg 94%
    07:00 -7°C° 0 mm 4 mps 738 mmHg 94%
    08:00 -6°C° 0 mm 3 mps 738 mmHg 95%
    09:00 -5°C° 0.1 mm 3 mps 738 mmHg 95%
    10:00 -5°C° 0.1 mm 3 mps 738 mmHg 95%
    11:00 -5°C° 0.1 mm 3 mps 738 mmHg 96%
    12:00 -5°C° 0.1 mm 3 mps 738 mmHg 96%
    13:00 -4°C° 0.1 mm 2 mps 738 mmHg 96%
    14:00 -5°C° 0.1 mm 2 mps 738 mmHg 96%
    15:00 -5°C° 0 mm 2 mps 738 mmHg 96%
    16:00 -3°C° 0 mm 1 mps 738 mmHg 96%
    17:00 -3°C° 0 mm 1 mps 738 mmHg 96%
    18:00 -3°C° 0 mm 1 mps 738 mmHg 96%
    19:00 -4°C° 0 mm 1 mps 738 mmHg 96%
    20:00 -4°C° 0 mm 1 mps 738 mmHg 97%
    21:00 -3°C° 0 mm 1 mps 739 mmHg 96%
    22:00 -3°C° 0 mm 1 mps 740 mmHg 96%
    23:00 -3°C° 0 mm 0 mps 740 mmHg 95%

    26 November, Sunday

    Time Temperature Precipitation Wind Pressure Humidity
    00:00 -3°C° 0 mm 1 mps 741 mmHg 95%
    01:00 -3°C° 0 mm 1 mps 741 mmHg 95%
    02:00 -3°C° 0 mm 1 mps 742 mmHg 95%
    03:00 -3°C° 0 mm 1 mps 742 mmHg 96%
    04:00 -4°C° 0 mm 1 mps 742 mmHg 96%
    05:00 -4°C° 0 mm 1 mps 742 mmHg 96%
    06:00 -4°C° 0 mm 1 mps 743 mmHg 96%
    07:00 -6°C° 0 mm 2 mps 743 mmHg 96%
    08:00 -6°C° 0 mm 2 mps 743 mmHg 96%
    09:00 -6°C° 0 mm 2 mps 743 mmHg 96%
    10:00 -6°C° 0 mm 2 mps 744 mmHg 96%
    11:00 -6°C° 0 mm 2 mps 744 mmHg 96%
    12:00 -6°C° 0 mm 2 mps 744 mmHg 96%
    13:00 -6°C° 0 mm 2 mps 744 mmHg 96%
    14:00 -6°C° 0 mm 2 mps 744 mmHg 95%
    15:00 -8°C° 0 mm 3 mps 744 mmHg 95%
    16:00 -8°C° 0 mm 3 mps 744 mmHg 95%
    17:00 -9°C° 0 mm 4 mps 743 mmHg 95%
    18:00 -9°C° 0 mm 4 mps 743 mmHg 94%
    19:00 -9°C° 0 mm 4 mps 743 mmHg 94%
    20:00 -10°C° 0 mm 5 mps 742 mmHg 93%
    21:00 -10°C° 0 mm 5 mps 742 mmHg 92%
    22:00 -9°C° 0 mm 6 mps 742 mmHg 90%
    23:00 -9°C° 0 mm 7 mps 741 mmHg 88%

    27 November, Monday

    Time Temperature Precipitation Wind Pressure Humidity
    00:00 -9°C° 0 mm 7 mps 740 mmHg 88%
    01:00 -10°C° 0 mm 8 mps 740 mmHg 87%
    02:00 -8°C° 0 mm 8 mps 739 mmHg 86%
    03:00 -9°C° 0.2 mm 9 mps 739 mmHg 87%
    04:00 -8°C° 0.2 mm 9 mps 738 mmHg 88%
    05:00 -8°C° 0.2 mm 10 mps 737 mmHg 90%
    06:00 -8°C° 0.5 mm 10 mps 737 mmHg 90%
    07:00 -7°C° 0.5 mm 10 mps 736 mmHg 91%
    08:00 -7°C° 0.5 mm 11 mps 736 mmHg 91%
    09:00 -7°C° 0.7 mm 10 mps 735 mmHg 92%
    10:00 -7°C° 0.7 mm 10 mps 735 mmHg 92%
    11:00 -5°C° 0.7 mm 10 mps 735 mmHg 93%
    12:00 -5°C° 0.8 mm 9 mps 735 mmHg 93%
    13:00 -5°C° 0.8 mm 8 mps 734 mmHg 94%
    14:00 -4°C° 0.8 mm 7 mps 734 mmHg 95%
    15:00 -5°C° 0.5 mm 6 mps 734 mmHg 95%
    16:00 -5°C° 0.5 mm 5 mps 734 mmHg 95%
    17:00 -6°C° 0.5 mm 5 mps 734 mmHg 94%
    18:00 -7°C° 0.2 mm 4 mps 734 mmHg 94%
    19:00 -8°C° 0.2 mm 4 mps 734 mmHg 93%
    20:00 -7°C° 0.2 mm 3 mps 734 mmHg 93%
    21:00 -8°C° 0.1 mm 3 mps 734 mmHg 93%
    22:00 -9°C° 0.1 mm 3 mps 734 mmHg 93%
    23:00 -10°C° 0.1 mm 3 mps 734 mmHg 93%
    Show more